OECAE LOWK-LOWI

Flight info

Callsign OECAE
Flight time 0h 41m
Altitude 24000
Route VILAK DCT NANIT NANIT2A
Aircraft PC12/L-SDFGRWY/S

Departure

Time 2026-05-05 18:44
Airport Klagenfurt Airport (LOWK)

Arrival

Time 2026-05-05 19:25
Airport Innsbruck Airport (LOWI)
Time Latitude Longitude Altitude Speed Heading
2026-05-05 18:32 46.64729 14.32570 1473 ft 0 kts 255°
2026-05-05 18:42 46.64704 14.32571 1473 ft 13 kts 149°
2026-05-05 18:42 46.64676 14.32500 1469 ft 15 kts 263°
2026-05-05 18:42 46.64555 14.32436 1472 ft 16 kts 192°
2026-05-05 18:42 46.64505 14.32531 1472 ft 3 kts 108°
2026-05-05 18:43 46.64502 14.32544 1468 ft 7 kts 108°
2026-05-05 18:43 46.64472 14.32683 1468 ft 22 kts 108°
2026-05-05 18:43 46.64379 14.33161 1467 ft 81 kts 107°
2026-05-05 18:43 46.64174 14.34184 1506 ft 124 kts 104°
2026-05-05 18:44 46.63967 14.35489 1875 ft 141 kts 102°
2026-05-05 18:44 46.63764 14.36911 2556 ft 144 kts 103°
2026-05-05 18:44 46.63536 14.38373 3212 ft 149 kts 108°
2026-05-05 18:44 46.63234 14.39832 3965 ft 155 kts 110°
2026-05-05 18:45 46.62868 14.41436 4427 ft 173 kts 116°
2026-05-05 18:45 46.62451 14.42986 5355 ft 161 kts 116°
2026-05-05 18:45 46.62087 14.44572 6031 ft 170 kts 108°
2026-05-05 18:45 46.62245 14.46279 6719 ft 177 kts 57°
2026-05-05 18:46 46.63164 14.47308 7399 ft 166 kts
2026-05-05 18:46 46.64237 14.47242 8129 ft 149 kts 328°
2026-05-05 18:46 46.65040 14.46270 8566 ft 158 kts 295°
2026-05-05 18:46 46.65326 14.44656 8859 ft 176 kts 274°
2026-05-05 18:47 46.65430 14.42770 8980 ft 197 kts 273°
2026-05-05 18:47 46.65553 14.40729 9170 ft 204 kts 274°
2026-05-05 18:47 46.65685 14.38664 9481 ft 205 kts 274°
2026-05-05 18:47 46.65815 14.36638 9772 ft 206 kts 274°
2026-05-05 18:48 46.65947 14.34559 10034 ft 207 kts 274°
2026-05-05 18:48 46.66079 14.32469 10286 ft 208 kts 274°
2026-05-05 18:48 46.66210 14.30392 10546 ft 209 kts 274°
2026-05-05 18:48 46.66344 14.28273 10809 ft 211 kts 274°
2026-05-05 18:49 46.66478 14.26145 11070 ft 212 kts 274°
2026-05-05 18:49 46.66612 14.24004 11326 ft 213 kts 274°
2026-05-05 18:49 46.66746 14.21855 11591 ft 214 kts 274°
2026-05-05 18:49 46.66948 14.19699 11844 ft 215 kts 277°
2026-05-05 18:50 46.67159 14.17536 12114 ft 216 kts 277°
2026-05-05 18:50 46.67368 14.15364 12384 ft 217 kts 277°
2026-05-05 18:50 46.67577 14.13174 12653 ft 219 kts 276°
2026-05-05 18:50 46.67787 14.10981 12930 ft 220 kts 276°
2026-05-05 18:51 46.67996 14.08803 13213 ft 221 kts 277°
2026-05-05 18:51 46.68207 14.06586 13451 ft 222 kts 277°
2026-05-05 18:51 46.68420 14.04353 13672 ft 223 kts 277°
2026-05-05 18:51 46.68633 14.02114 13875 ft 224 kts 277°
2026-05-05 18:52 46.68846 13.99868 14086 ft 224 kts 277°
2026-05-05 18:52 46.69059 13.97616 14276 ft 225 kts 276°
2026-05-05 18:52 46.69272 13.95360 14464 ft 225 kts 276°
2026-05-05 18:52 46.69496 13.93106 14579 ft 225 kts 279°
2026-05-05 18:53 46.69987 13.90927 14691 ft 229 kts 291°
2026-05-05 18:53 46.70788 13.88947 14879 ft 231 kts 300°
2026-05-05 18:53 46.71686 13.86998 15052 ft 232 kts 300°
2026-05-05 18:53 46.72574 13.85039 15223 ft 232 kts 300°
2026-05-05 18:54 46.73470 13.83069 15399 ft 234 kts 300°
2026-05-05 18:54 46.74369 13.81094 15589 ft 234 kts 300°
2026-05-05 18:54 46.75269 13.79119 15783 ft 234 kts 300°
2026-05-05 18:54 46.76173 13.77131 15977 ft 236 kts 300°
2026-05-05 18:55 46.77079 13.75135 16205 ft 237 kts 300°
2026-05-05 18:55 46.77988 13.73131 16337 ft 237 kts 300°
2026-05-05 18:55 46.78887 13.71155 16416 ft 237 kts 300°
2026-05-05 18:55 46.79798 13.69146 16531 ft 238 kts 299°
2026-05-05 18:56 46.80710 13.67129 16711 ft 239 kts 299°
2026-05-05 18:56 46.81627 13.65105 16920 ft 239 kts 300°
2026-05-05 18:56 46.82546 13.63075 17093 ft 240 kts 299°
2026-05-05 18:56 46.83469 13.61033 17301 ft 241 kts 299°
2026-05-05 18:57 46.84394 13.58987 17482 ft 242 kts 299°
2026-05-05 18:57 46.85323 13.56928 17649 ft 243 kts 299°
2026-05-05 18:57 46.86254 13.54865 17853 ft 243 kts 299°
2026-05-05 18:57 46.87186 13.52796 18026 ft 244 kts 299°
2026-05-05 18:58 46.88109 13.50747 18195 ft 245 kts 299°
2026-05-05 18:58 46.89049 13.48659 18301 ft 246 kts 299°
2026-05-05 18:58 46.89991 13.46565 18386 ft 247 kts 299°
2026-05-05 18:58 46.90935 13.44465 18456 ft 247 kts 299°
2026-05-05 18:59 46.91878 13.42362 18547 ft 248 kts 299°
2026-05-05 18:59 46.92823 13.40257 18647 ft 248 kts 299°
2026-05-05 18:59 46.93770 13.38148 18695 ft 248 kts 298°
2026-05-05 18:59 46.94718 13.36033 18798 ft 249 kts 299°
2026-05-05 19:00 46.95666 13.33915 18940 ft 249 kts 298°
2026-05-05 19:00 46.96603 13.31818 19026 ft 250 kts 298°
2026-05-05 19:00 46.97556 13.29687 19122 ft 250 kts 298°
2026-05-05 19:00 46.98510 13.27552 19252 ft 251 kts 298°
2026-05-05 19:01 46.99465 13.25412 19363 ft 252 kts 298°
2026-05-05 19:01 47.00425 13.23260 19487 ft 253 kts 298°
2026-05-05 19:01 47.01388 13.21099 19560 ft 254 kts 298°
2026-05-05 19:01 47.02352 13.18933 19674 ft 254 kts 298°
2026-05-05 19:02 47.03318 13.16764 19735 ft 255 kts 298°
2026-05-05 19:02 47.04273 13.14616 19846 ft 255 kts 298°
2026-05-05 19:02 47.05241 13.12431 19969 ft 256 kts 298°
2026-05-05 19:02 47.06213 13.10248 20058 ft 256 kts 298°
2026-05-05 19:03 47.07182 13.08064 20158 ft 256 kts 297°
2026-05-05 19:03 47.08154 13.05867 20237 ft 258 kts 298°
2026-05-05 19:03 47.09131 13.03662 20364 ft 258 kts 297°
2026-05-05 19:03 47.10110 13.01449 20476 ft 259 kts 297°
2026-05-05 19:04 47.11093 12.99226 20592 ft 260 kts 297°
2026-05-05 19:04 47.12076 12.97000 20640 ft 260 kts 297°
2026-05-05 19:04 47.13063 12.94767 20643 ft 260 kts 297°
2026-05-05 19:04 47.14033 12.92569 20713 ft 260 kts 297°
2026-05-05 19:05 47.15019 12.90328 20745 ft 261 kts 297°
2026-05-05 19:05 47.16007 12.88084 20830 ft 262 kts 297°
2026-05-05 19:05 47.16987 12.85861 21103 ft 251 kts 297°
2026-05-05 19:05 47.17904 12.83795 21825 ft 237 kts 296°
2026-05-05 19:06 47.18798 12.81737 22155 ft 241 kts 296°
2026-05-05 19:06 47.19712 12.79645 22462 ft 243 kts 296°
2026-05-05 19:06 47.20631 12.77555 22794 ft 244 kts 296°
2026-05-05 19:06 47.21543 12.75477 23057 ft 246 kts 296°
2026-05-05 19:07 47.22470 12.73359 23354 ft 247 kts 296°
2026-05-05 19:07 47.23401 12.71233 23579 ft 248 kts 296°
2026-05-05 19:07 47.24337 12.69094 23789 ft 249 kts 296°
2026-05-05 19:07 47.25282 12.66927 23876 ft 255 kts 296°
2026-05-05 19:08 47.26241 12.64732 23872 ft 253 kts 296°
2026-05-05 19:08 47.27186 12.62579 23862 ft 248 kts 295°
2026-05-05 19:08 47.28100 12.60485 23467 ft 241 kts 295°
2026-05-05 19:08 47.29015 12.58375 22640 ft 244 kts 295°
2026-05-05 19:09 47.29938 12.56236 21295 ft 262 kts 296°
2026-05-05 19:09 47.30952 12.53901 20127 ft 274 kts 297°
2026-05-05 19:09 47.31970 12.51585 19847 ft 272 kts 297°
2026-05-05 19:09 47.32997 12.49218 19494 ft 275 kts 297°
2026-05-05 19:10 47.34024 12.46843 19126 ft 275 kts 297°
2026-05-05 19:10 47.35056 12.44468 18751 ft 270 kts 297°
2026-05-05 19:10 47.36060 12.42151 18401 ft 270 kts 297°
2026-05-05 19:10 47.37072 12.39804 18022 ft 271 kts 297°
2026-05-05 19:11 47.38065 12.37512 17654 ft 268 kts 298°
2026-05-05 19:11 47.38963 12.35112 17291 ft 267 kts 289°
2026-05-05 19:11 47.39499 12.32508 16942 ft 265 kts 278°
2026-05-05 19:11 47.39756 12.29820 16590 ft 265 kts 275°
2026-05-05 19:12 47.40009 12.27132 16237 ft 264 kts 276°
2026-05-05 19:12 47.40268 12.24456 15896 ft 263 kts 276°
2026-05-05 19:12 47.40521 12.21772 15543 ft 265 kts 276°
2026-05-05 19:12 47.40768 12.19120 15195 ft 264 kts 276°
2026-05-05 19:13 47.41019 12.16436 14852 ft 263 kts 276°
2026-05-05 19:13 47.41269 12.13769 14512 ft 263 kts 276°
2026-05-05 19:13 47.41517 12.11099 14164 ft 262 kts 276°
2026-05-05 19:13 47.41764 12.08433 13824 ft 262 kts 277°
2026-05-05 19:14 47.42011 12.05777 13466 ft 261 kts 276°
2026-05-05 19:14 47.42256 12.03123 13108 ft 261 kts 276°
2026-05-05 19:14 47.42483 12.00469 12759 ft 259 kts 273°
2026-05-05 19:14 47.42381 11.97830 12421 ft 257 kts 259°
2026-05-05 19:15 47.41863 11.95315 12080 ft 256 kts 246°
2026-05-05 19:15 47.40964 11.93054 11745 ft 256 kts 233°
2026-05-05 19:15 47.39747 11.91186 11413 ft 256 kts 220°
2026-05-05 19:15 47.38268 11.89743 11079 ft 255 kts 212°
2026-05-05 19:16 47.36743 11.88412 10741 ft 254 kts 212°
2026-05-05 19:16 47.35231 11.87073 10409 ft 253 kts 212°
2026-05-05 19:16 47.33732 11.85751 10075 ft 250 kts 212°
2026-05-05 19:16 47.32415 11.84148 9744 ft 246 kts 232°
2026-05-05 19:17 47.31677 11.81889 9423 ft 247 kts 255°
2026-05-05 19:17 47.31618 11.79401 9360 ft 243 kts 274°
2026-05-05 19:17 47.31809 11.77035 8929 ft 228 kts 272°
2026-05-05 19:17 47.31772 11.74664 8550 ft 231 kts 261°
2026-05-05 19:18 47.31456 11.72330 8554 ft 232 kts 254°
2026-05-05 19:18 47.31056 11.70013 8531 ft 234 kts 253°
2026-05-05 19:18 47.30649 11.67658 8256 ft 239 kts 254°
2026-05-05 19:18 47.30244 11.65273 7966 ft 240 kts 254°
2026-05-05 19:19 47.29846 11.62928 7626 ft 233 kts 254°
2026-05-05 19:19 47.29445 11.60583 7321 ft 239 kts 253°
2026-05-05 19:19 47.29041 11.58200 7084 ft 238 kts 254°
2026-05-05 19:19 47.28691 11.55840 6827 ft 239 kts 258°
2026-05-05 19:20 47.28458 11.53412 6501 ft 242 kts 259°
2026-05-05 19:20 47.28190 11.50953 6060 ft 244 kts 258°
2026-05-05 19:20 47.27884 11.48474 5484 ft 247 kts 257°
2026-05-05 19:20 47.27560 11.45980 4958 ft 249 kts 256°
2026-05-05 19:21 47.27062 11.43587 4729 ft 239 kts 241°
2026-05-05 19:21 47.26210 11.41559 4418 ft 227 kts 234°
2026-05-05 19:21 47.25377 11.39763 4061 ft 207 kts 233°
2026-05-05 19:21 47.24585 11.38207 3715 ft 172 kts 232°
2026-05-05 19:22 47.23947 11.36634 3790 ft 187 kts 248°
2026-05-05 19:22 47.23633 11.34745 3853 ft 191 kts 260°
2026-05-05 19:22 47.23519 11.32808 3836 ft 187 kts 266°
2026-05-05 19:22 47.23482 11.31091 3734 ft 158 kts 267°
2026-05-05 19:23 47.23459 11.29597 3640 ft 137 kts 267°
2026-05-05 19:23 47.23449 11.28186 3583 ft 141 kts 270°
2026-05-05 19:23 47.23989 11.26993 3358 ft 147 kts 327°
2026-05-05 19:23 47.24931 11.26851 2902 ft 132 kts 23°
2026-05-05 19:24 47.25426 11.27750 2680 ft 116 kts 82°
2026-05-05 19:24 47.25476 11.28951 2603 ft 116 kts 89°
2026-05-05 19:24 47.25563 11.30092 2466 ft 110 kts 85°
2026-05-05 19:24 47.25672 11.31137 2269 ft 101 kts 86°
2026-05-05 19:25 47.25779 11.32136 2130 ft 96 kts 87°
2026-05-05 19:25 47.25878 11.33058 1986 ft 87 kts 90°
2026-05-05 19:25 47.25962 11.33883 1911 ft 70 kts 83°
2026-05-05 19:25 47.26023 11.34426 1907 ft 33 kts 81°
2026-05-05 19:26 47.26066 11.34812 1904 ft 43 kts 82°
2026-05-05 19:26 47.26110 11.35202 1898 ft 17 kts 84°
2026-05-05 19:26 47.26028 11.35268 1900 ft 19 kts 169°
2026-05-05 19:26 47.25954 11.35284 1896 ft 0 kts 171°
2026-05-05 19:27 47.25895 11.35311 1891 ft 10 kts 133°
2026-05-05 19:28 47.25894 11.35360 1897 ft 0 kts 65°